WATER LEVELS

Guaranteed water level and forecast    Ústí nad Labem-Střekov

Guaranteed water level
125 cm
on 17.09.2019 more information
Forecast
125 cm
on 18.09.2019 07:00
Tendency
steady state
on 18.09.2019 metodika tendence
Forecast
(Source data ČHMÚ a Povodí Labe)

Ústí nad Labem

Date and time (UTC) H (cm) Q (m3/s)
17. 9. 2019 09:20 136 92
17. 9. 2019 09:00 137 93
17. 9. 2019 08:00 145 105
17. 9. 2019 07:00 142 101
17. 9. 2019 06:00 125 77
17. 9. 2019 05:00 125 77
17. 9. 2019 04:00 126 78
17. 9. 2019 03:00 126 78
17. 9. 2019 02:00 126 78
17. 9. 2019 01:00 125 77
17. 9. 2019 00:00 125 77
16. 9. 2019 23:00 125 77
16. 9. 2019 22:00 126 78
16. 9. 2019 21:00 126 78

H - vodni stav, Q - discharge
more information

Mělník

Date and time (UTC) H (cm) Q (m3/s)
17. 9. 2019 09:20 254 -
17. 9. 2019 09:00 255 -
17. 9. 2019 08:00 252 -
17. 9. 2019 07:00 252 -
17. 9. 2019 06:00 252 70
17. 9. 2019 05:00 251 -
17. 9. 2019 04:00 248 -
17. 9. 2019 03:00 249 -
17. 9. 2019 02:00 251 -
17. 9. 2019 01:00 254 -
17. 9. 2019 00:00 252 -
16. 9. 2019 23:00 253 -
16. 9. 2019 22:00 252 -
16. 9. 2019 21:00 249 -

H - vodni stav, Q - discharge
more information

Kostelec nad Labem

Date and time (UTC) H (cm) Q (m3/s)
17. 9. 2019 09:20 393 -
17. 9. 2019 09:00 388 -
17. 9. 2019 08:00 386 10
17. 9. 2019 07:00 393 14
17. 9. 2019 06:00 393 14
17. 9. 2019 05:00 393 -
17. 9. 2019 04:00 393 14
17. 9. 2019 03:00 393 14
17. 9. 2019 02:00 393 14
17. 9. 2019 01:00 393 13
17. 9. 2019 00:00 392 13
16. 9. 2019 23:00 394 15
16. 9. 2019 22:00 392 16
16. 9. 2019 21:00 391 11

H - vodni stav, Q - discharge
more information

Přelouč

Date and time (UTC) H (cm) Q (m3/s)
17. 9. 2019 09:10 33 13
17. 9. 2019 09:00 34 14
17. 9. 2019 08:00 34 14
17. 9. 2019 07:00 29 12
17. 9. 2019 06:00 29 12
17. 9. 2019 05:00 34 14
17. 9. 2019 04:00 39 16
17. 9. 2019 03:00 39 16
17. 9. 2019 02:00 31 13
17. 9. 2019 01:00 27 11
17. 9. 2019 00:00 29 12
16. 9. 2019 23:00 40 17
16. 9. 2019 22:00 40 17
16. 9. 2019 21:00 32 13

H - vodni stav, Q - discharge
more information

Praha-Chuchle

Date and time (UTC) H (cm) Q (m3/s)
17. 9. 2019 09:20 46 54
17. 9. 2019 09:00 46 54
17. 9. 2019 08:00 46 54
17. 9. 2019 07:00 46 54
17. 9. 2019 06:00 46 54
17. 9. 2019 05:00 46 54
17. 9. 2019 04:00 47 58
17. 9. 2019 03:00 47 58
17. 9. 2019 02:00 47 58
17. 9. 2019 01:00 47 58
17. 9. 2019 00:00 47 58
16. 9. 2019 23:00 47 58
16. 9. 2019 22:00 46 54
16. 9. 2019 21:00 46 54

H - vodni stav, Q - discharge
more information

České Budějovice

Date and time (UTC) H (cm) Q (m3/s)
17. 9. 2019 09:10 99 10
17. 9. 2019 09:00 99 10
17. 9. 2019 08:00 101 10
17. 9. 2019 07:00 102 10
17. 9. 2019 06:00 101 10
17. 9. 2019 05:00 101 10
17. 9. 2019 04:00 102 11
17. 9. 2019 03:00 102 11
17. 9. 2019 02:00 101 10
17. 9. 2019 01:00 101 12
17. 9. 2019 00:00 102 13
16. 9. 2019 23:00 102 14
16. 9. 2019 22:00 102 13
16. 9. 2019 21:00 102 14

H - vodni stav, Q - discharge
more information
Source data
Labe Basin Vltava Basin ČHMÚ